[[{"header":{"parameterUnit":"m.s-1","parameterCategory":1,"la1":30.2991,"la2":30.254,"lo1":-89.0895,"lo2":-89.0444,"dy":0.0017,"dx":0.0017,"nx":28,"ny":28,"refTime":"2024-07-24T03:00:00:Z","depth":0,"parameterNumber":2,"parameterNumberName":"U-component_of_WINDS"},"data":[0,0,0,0,0,0,0,0,0,0,0,0,0,0,0,0,0,0,0,0,0,0,0,0,0,0,0,0,0,0,0,0,0,0,0,0,0,0,0,0,0,0,0,0,0,0,0,0,0,0,0,0,0,0,0,0,0,0,0.9272,0.9272,0,0.9293,0.9294,0.9294,0.9296,0.9296,0.9296,0.9295,0.9317,0.9318,0.9319,0,0,0,0,0,0,0,0,0,0,0,0,0,0.9231,0.9232,0.9272,0.9272,0.9272,0.9293,0.9294,0.9294,0.9296,0.9296,0.9295,0.9295,0.9317,0.9318,0.9319,0,0,0,0,0,0,0,0,0,0,0,0,0,0.9251,0.9232,0.9272,0.9276,0.9277,0.9293,0.9294,0.9294,0.9296,0.9296,0.9295,0.9295,0.9317,0.9318,0.9319,0.9333,0,0,0.9323,0.9323,0,0,0,0,0,0,0,0,0.9249,0.9252,0.9275,0.9276,0.9276,0.9292,0.9287,0.9307,0.9296,0.9289,0.9295,0.9295,0.9309,0.9311,0.9316,0.9334,0.9335,0.9323,0.9324,0.9324,0.9324,0,0,0,0,0,0,0,0.9248,0.9251,0.928,0.9275,0.9276,0.9276,0.9279,0.9291,0.9301,0.9289,0.929,0.9292,0.9309,0.9314,0.9316,0.9335,0.9323,0.9324,0.9325,0.9325,0.9364,0.9364,0,0,0,0,0,0,0.9246,0.925,0.928,0.9281,0.9262,0.9277,0.928,0.9287,0.93,0.9302,0.9292,0.9292,0.9313,0.9315,0.9317,0.9333,0.9324,0.9325,0.9326,0.9364,0.9364,0.9364,0,0,0,0,0,0,0.9245,0.9249,0.9279,0.9266,0.9269,0.9278,0.9286,0.9288,0.9293,0.9303,0.9304,0.9296,0.9312,0.9315,0.9329,0.9334,0.9326,0.9327,0.9363,0.9364,0.9364,0.9365,0,0,0,0,0,0,0.9244,0.9248,0.9254,0.9266,0.927,0.9291,0.9287,0.9288,0.9295,0.9295,0.9306,0.9308,0.9312,0.9327,0.933,0.9335,0.9328,0.9363,0.9364,0.9364,0.9365,0.9366,0.9367,0,0,0,0,0,0.9243,0.9254,0.9255,0.9258,0.9278,0.9291,0.9293,0.9298,0.9295,0.9301,0.9307,0.9308,0.9333,0.9328,0.9331,0.9337,0.9363,0.9363,0.9364,0.9365,0.9366,0.9367,0,0,0,0,0,0,0.9244,0.9256,0.9257,0.9272,0.928,0.9291,0.9299,0.93,0.9309,0.9308,0.9314,0.9316,0.9329,0.9335,0.9329,0.935,0.9347,0.9349,0.9346,0.9348,0.9348,0.9347,0.9329,0,0,0,0,0,0.9246,0.9256,0.9266,0.9279,0.9283,0.929,0.9296,0.9299,0.9307,0.9311,0.9318,0.9326,0.9336,0.9342,0.9351,0.9366,0.9367,0.9371,0.9372,0.9372,0.9374,0.938,0.9381,0.9367,0.9367,0.9367,0,0,0.9251,0.9258,0.9265,0.9279,0.9286,0.9295,0.9293,0.9304,0.931,0.9313,0.9325,0.933,0.934,0.9353,0.9359,0.9358,0.9378,0.9373,0.9374,0.9375,0.9381,0.9382,0.9383,0.9367,0.9367,0.9367,0,0,0.9264,0.9271,0.9282,0.9288,0.9298,0.9302,0.9304,0.9315,0.9318,0.9331,0.9332,0.934,0.9357,0.9363,0.9368,0.9381,0.9381,0.9383,0.9388,0.9394,0.9395,0.9396,0.9399,0.94,0.9385,0.9385,0.9385,0,0.9268,0.9283,0.9287,0.9297,0.9303,0.9304,0.9315,0.9321,0.9333,0.9337,0.9335,0.9354,0.9361,0.9375,0.9378,0.9382,0.9384,0.9382,0.9394,0.9395,0.9396,0.94,0.9401,0.9385,0.9385,0.9385,0.9385,0,0.9287,0.9297,0.9304,0.9315,0.9322,0.9332,0.9337,0.9343,0.9345,0.9349,0.936,0.9368,0.9378,0.9382,0.9384,0.9395,0.9394,0.9393,0.939,0.9398,0.9401,0.9402,0.9385,0.9385,0.9385,0.9385,0,0,0.9303,0.9314,0.9317,0.9321,0.9331,0.9338,0.9348,0.9357,0.9362,0.937,0.9377,0.939,0.9389,0.9394,0.9397,0.9402,0.941,0.9401,0.9401,0.9401,0.9421,0.9422,0.9423,0.941,0.9411,0.9411,0.942,0,0.9316,0.9333,0.9336,0.935,0.9358,0.9359,0.9367,0.9373,0.9377,0.9384,0.9388,0.9397,0.9395,0.9398,0.9404,0.9408,0.9414,0.9407,0.9417,0.9417,0.9414,0.9425,0.9425,0.9434,0.9422,0.9422,0.9422,0,0.9334,0.9341,0.9356,0.9363,0.9367,0.9374,0.9381,0.9389,0.9395,0.9397,0.9403,0.9404,0.9413,0.941,0.9421,0.9416,0.942,0.9423,0.9423,0.9424,0.942,0.9425,0.9437,0.9438,0.9424,0.9424,0.9424,0,0.9342,0.9356,0.9366,0.937,0.9378,0.9383,0.9387,0.9393,0.9398,0.9405,0.9408,0.9415,0.942,0.9425,0.9428,0.9426,0.9439,0.9436,0.944,0.944,0.9443,0.9443,0.9455,0.9447,0.9447,0.9447,0.9447,0,0.9356,0.9365,0.9369,0.9376,0.9385,0.9388,0.9397,0.9401,0.9406,0.9412,0.9414,0.942,0.9424,0.943,0.9432,0.9441,0.9443,0.9444,0.9445,0.9444,0.9444,0.9446,0.9446,0.9447,0.9447,0.9447,0.9447,0,0.9367,0.9371,0.9381,0.9388,0.939,0.9396,0.9402,0.9407,0.941,0.9418,0.942,0.9425,0.9432,0.9436,0.9445,0.9447,0.9456,0.9456,0.9453,0.9454,0.9457,0.9457,0.9472,0.9473,0.9464,0.9464,0.9464,0,0.9375,0.9382,0.9389,0.9393,0.9397,0.9404,0.9408,0.9411,0.9415,0.9422,0.9427,0.9434,0.944,0.9451,0.9455,0.9462,0.9462,0.9466,0.9463,0.9461,0.9461,0.946,0.946,0.9467,0.9467,0.9467,0.9467,0,0.939,0.939,0.9397,0.9403,0.9408,0.9414,0.9419,0.9422,0.9426,0.9431,0.9438,0.9442,0.9451,0.9457,0.9464,0.9467,0.9468,0.9468,0.9469,0.9469,0.9466,0.9467,0.9455,0.9468,0.9468,0.9468,0.9468,0.9468,0.9399,0.9404,0.9409,0.9416,0.942,0.9424,0.9429,0.9432,0.9438,0.9445,0.9446,0.9453,0.9458,0.9467,0.947,0.9476,0.9475,0.9477,0.9477,0.9478,0.9477,0.9466,0.9477,0.9477,0.9477,0.9477,0.9477,0,0.9412,0.9415,0.9421,0.9428,0.9432,0.9432,0.9437,0.9441,0.9447,0.9452,0.9457,0.9464,0.947,0.9474,0.948,0.9484,0.9484,0.9485,0.9485,0.9485,0.9478,0.9476,0.9485,0.9485,0.9485,0.9485,0.9485,0.9485,0.9419,0.9428,0.9429,0.9438,0.9441,0.9448,0.9451,0.9455,0.9458,0.9466,0.9471,0.9473,0.9477,0.9483,0.9488,0.9489,0.9491,0.9492,0.9493,0.9487,0.9486,0.9485,0.9483,0.9493,0.9493,0.9499,0.95,0.95]},{"header":{"parameterUnit":"m.s-1","parameterCategory":1,"la1":30.2991,"la2":30.254,"lo1":-89.0895,"lo2":-89.0444,"dy":0.0017,"dx":0.0017,"nx":28,"ny":28,"refTime":"2024-07-24T03:00:00:Z","depth":0,"parameterNumber":3,"parameterNumberName":"V-component_of_WINDS"},"data":[0,0,0,0,0,0,0,0,0,0,0,0,0,0,0,0,0,0,0,0,0,0,0,0,0,0,0,0,0,0,0,0,0,0,0,0,0,0,0,0,0,0,0,0,0,0,0,0,0,0,0,0,0,0,0,0,0,0,3.0219,3.0219,0,3.0196,3.0195,3.0195,3.0129,3.0127,3.0126,3.0125,3.01,3.0101,3.0101,0,0,0,0,0,0,0,0,0,0,0,0,0,3.0206,3.0207,3.022,3.0219,3.0219,3.0196,3.0195,3.0195,3.0129,3.0127,3.0126,3.0124,3.01,3.0101,3.0101,0,0,0,0,0,0,0,0,0,0,0,0,0,3.02,3.0207,3.022,3.0183,3.018,3.0196,3.0195,3.0195,3.013,3.0127,3.0125,3.0123,3.01,3.0101,3.0102,3.0151,0,0,3.0105,3.0105,0,0,0,0,0,0,0,0,3.0201,3.0201,3.0189,3.0186,3.0182,3.0163,3.0182,3.018,3.013,3.0149,3.0125,3.0122,3.0123,3.0122,3.0122,3.015,3.0149,3.0105,3.0105,3.0106,3.0106,0,0,0,0,0,0,0,3.0201,3.0202,3.021,3.0189,3.0185,3.0168,3.0164,3.0181,3.0148,3.0147,3.0142,3.014,3.012,3.0121,3.0121,3.0148,3.0105,3.0106,3.0106,3.0107,3.0212,3.0215,0,0,0,0,0,0,3.0207,3.0202,3.0211,3.0209,3.0186,3.017,3.0166,3.0171,3.0148,3.0142,3.0142,3.0137,3.012,3.012,3.012,3.0174,3.0106,3.0107,3.0107,3.021,3.0213,3.0215,0,0,0,0,0,0,3.0207,3.0208,3.0212,3.0204,3.0204,3.0172,3.0179,3.0172,3.0173,3.0144,3.0138,3.0149,3.0119,3.0118,3.0143,3.0172,3.0107,3.0108,3.0208,3.0211,3.0214,3.0284,0,0,0,0,0,0,3.0207,3.0209,3.0228,3.0205,3.0204,3.0236,3.018,3.0173,3.0175,3.0168,3.0149,3.0143,3.0117,3.0142,3.0144,3.0172,3.0109,3.0205,3.0209,3.0213,3.0279,3.0289,3.0298,0,0,0,0,0,3.0207,3.0249,3.0229,3.023,3.0227,3.0238,3.0237,3.0206,3.0177,3.0195,3.0177,3.0144,3.0169,3.0145,3.0147,3.0176,3.0203,3.0208,3.0213,3.0274,3.0287,3.0298,0,0,0,0,0,0,3.0276,3.0245,3.0223,3.0259,3.0252,3.0227,3.0249,3.0221,3.0221,3.0215,3.0176,3.0172,3.0202,3.0192,3.0165,3.0221,3.018,3.0186,3.0227,3.0238,3.0248,3.0249,3.011,0,0,0,0,0,3.0295,3.0307,3.0279,3.0314,3.0311,3.0281,3.0284,3.0261,3.0251,3.0248,3.0231,3.0223,3.0228,3.0233,3.0237,3.0277,3.0271,3.0298,3.0308,3.0316,3.0321,3.0339,3.035,3.0232,3.0232,3.0231,0,0,3.0335,3.032,3.033,3.0327,3.0319,3.033,3.0279,3.0294,3.0302,3.025,3.0272,3.0259,3.0247,3.028,3.0293,3.0272,3.0352,3.0322,3.0329,3.0329,3.0345,3.0356,3.0366,3.0235,3.0234,3.0234,0,0,3.0414,3.0405,3.0431,3.0423,3.0411,3.039,3.0397,3.0376,3.0365,3.0386,3.0347,3.0356,3.0367,3.036,3.0357,3.0432,3.0401,3.0434,3.0484,3.0502,3.0512,3.052,3.0544,3.0554,3.044,3.044,3.044,0,3.0466,3.0482,3.0448,3.0466,3.0465,3.0418,3.0444,3.0438,3.0428,3.0428,3.0404,3.0416,3.0405,3.0434,3.0452,3.0452,3.0457,3.0436,3.0513,3.0521,3.0528,3.0551,3.056,3.0444,3.0443,3.0443,3.0443,0,3.0545,3.0557,3.058,3.057,3.0572,3.0594,3.0563,3.0569,3.0545,3.0527,3.0548,3.0533,3.0532,3.0537,3.0514,3.0562,3.0549,3.052,3.0478,3.0544,3.0564,3.0573,3.0449,3.0448,3.0447,3.0446,0,0,3.0667,3.0637,3.0646,3.064,3.0622,3.063,3.0649,3.0648,3.0653,3.0647,3.0661,3.0671,3.0643,3.0641,3.0617,3.0633,3.0691,3.0602,3.0601,3.0617,3.074,3.076,3.0771,3.0671,3.0672,3.0673,3.074,0,3.0739,3.077,3.0739,3.0776,3.0785,3.0741,3.0757,3.0747,3.073,3.0736,3.0717,3.0724,3.0688,3.0686,3.07,3.0681,3.0714,3.0676,3.0682,3.0682,3.0684,3.0782,3.0804,3.0868,3.0748,3.0749,3.075,0,3.0828,3.0826,3.0863,3.0841,3.0844,3.0859,3.0854,3.086,3.0848,3.0834,3.0831,3.0802,3.0817,3.0778,3.0798,3.0772,3.0773,3.0764,3.0765,3.0763,3.0719,3.0781,3.0888,3.0897,3.0763,3.0762,3.0761,0,3.0911,3.0917,3.0939,3.0936,3.0911,3.0922,3.0913,3.0898,3.0899,3.0895,3.0894,3.0893,3.0891,3.089,3.086,3.0834,3.0884,3.0842,3.0871,3.0872,3.0883,3.0882,3.0989,3.0887,3.0886,3.0886,3.0886,0,3.0994,3.1018,3.0975,3.0989,3.1014,3.0979,3.1004,3.099,3.0977,3.0986,3.0948,3.0958,3.0919,3.0924,3.0901,3.092,3.092,3.0909,3.0902,3.0911,3.0912,3.091,3.0904,3.0889,3.0888,3.0888,3.0887,0,3.109,3.1062,3.1083,3.1058,3.1052,3.1072,3.1049,3.106,3.1041,3.1053,3.1054,3.1023,3.1027,3.0997,3.0996,3.098,3.101,3.0996,3.1014,3.1009,3.1039,3.1036,3.1147,3.1159,3.1051,3.1052,3.1053,0,3.1144,3.1161,3.1137,3.1141,3.1133,3.1139,3.1139,3.1105,3.1106,3.1092,3.1105,3.1105,3.1104,3.1112,3.1089,3.1087,3.1072,3.1111,3.1071,3.1079,3.107,3.1069,3.1069,3.1119,3.112,3.1121,3.1122,0,3.1243,3.1228,3.1229,3.1226,3.1227,3.1222,3.1215,3.122,3.1183,3.1186,3.1189,3.1188,3.1186,3.1186,3.118,3.1169,3.1139,3.1135,3.1141,3.115,3.1158,3.1152,3.1034,3.1132,3.1131,3.113,3.113,3.1129,3.1318,3.133,3.1314,3.1317,3.1308,3.1302,3.1311,3.1292,3.1294,3.1289,3.1269,3.1275,3.1261,3.1249,3.124,3.1244,3.1225,3.1235,3.1237,3.124,3.1244,3.1159,3.1243,3.1243,3.1243,3.1242,3.1242,0,3.1412,3.14,3.1403,3.1393,3.1395,3.1367,3.1357,3.136,3.1367,3.1356,3.1355,3.1357,3.1357,3.1334,3.1331,3.1338,3.1324,3.1338,3.1337,3.1334,3.1263,3.1256,3.135,3.135,3.135,3.135,3.135,3.135,3.1461,3.148,3.1463,3.1477,3.1464,3.147,3.1466,3.146,3.1451,3.1456,3.1455,3.144,3.1424,3.1419,3.1417,3.141,3.141,3.1429,3.1417,3.135,3.1339,3.1329,3.1323,3.1429,3.1429,3.1488,3.1488,3.1489]}]]